contact:dominique.lefevre@mio.osupytheas.fr, maurice.libes@osupytheas.fr, didier.mallarino@osupytheas.fr
Project:EMSO http://www.emso-fr.org/EMSO-France
Depth: 2436.0 m
Title:EMSO Ligure Ouest : Data MII capteur AQUADOPP
Date,Latitude,Longitude,X_East,Y_North,Z_Up,Amplitude_X,Amplitude_Y,Amplitude_Z,Batterie,SoundSpeed,Heading,Pitch,Roll,Pressure,TIS,Speed,Direction
, degrees North, degrees East, m.s-1, m.s-1,m.s-1, 1, 1, 1, Volt, m.s-1, degree, degree, degree, dbar, degree_C, m.s-1, degree
2023-06-26T00:04:03,42.805,6.029,-0.017,-0.008,-0.049,103.0,103.0,101.0,13.4,1505.2,327.7,-0.8,1.8,2471.527,13.29,0.018,244.8
2023-06-26T00:07:03,42.805,6.029,0.012,-0.002,-0.003,102.0,103.0,101.0,13.4,1505.2,336.5,-0.8,1.9,2471.489,13.29,0.012,99.5
2023-06-26T00:10:03,42.805,6.029,0.003,-0.028,-0.07,102.0,102.0,101.0,13.3,1505.2,338.4,-0.7,1.8,2471.521,13.29,0.028,173.9
2023-06-26T00:13:03,42.805,6.029,0.0,0.01,-0.021,101.0,103.0,101.0,13.3,1505.2,346.9,-0.8,1.8,2471.508,13.29,0.01,0.0
2023-06-26T00:16:03,42.805,6.029,-0.005,-0.004,-0.041,102.0,102.0,101.0,13.4,1505.2,340.3,-0.7,1.8,2471.48,13.29,0.006,231.3
2023-06-26T00:19:03,42.805,6.029,0.017,0.004,-0.005,102.0,102.0,102.0,13.4,1505.2,321.4,-0.8,1.8,2471.483,13.29,0.017,76.8
2023-06-26T00:22:03,42.805,6.029,0.018,0.017,0.014,102.0,101.0,102.0,13.3,1505.2,332.9,-0.8,1.8,2471.489,13.29,0.024,46.6
2023-06-26T00:25:03,42.805,6.029,0.013,-0.013,-0.047,104.0,103.0,100.0,13.4,1505.2,337.3,-0.8,1.8,2471.475,13.29,0.018,135.0
2023-06-26T00:28:03,42.805,6.029,0.014,-0.008,-0.008,103.0,101.0,101.0,13.4,1505.2,329.8,-0.8,1.8,2471.51,13.29,0.016,119.7
2023-06-26T00:31:03,42.805,6.029,-0.001,0.008,-0.002,102.0,100.0,101.0,13.3,1505.2,351.2,-0.7,1.8,2471.494,13.29,0.008,352.9
2023-06-26T00:34:03,42.805,6.029,-0.008,-0.01,0.0,102.0,100.0,101.0,13.4,1505.2,323.9,-0.8,1.8,2471.469,13.29,0.012,218.7
2023-06-26T00:37:03,42.805,6.029,-0.007,0.007,-0.03,102.0,101.0,101.0,13.4,1505.2,325.3,-0.8,1.8,2471.465,13.29,0.009,315.0
2023-06-26T00:40:03,42.805,6.029,0.021,0.01,-0.013,102.0,103.0,102.0,13.4,1505.2,343.5,-0.8,1.8,2471.466,13.29,0.023,64.5
2023-06-26T00:43:03,42.805,6.029,-0.005,-0.019,-0.051,101.0,102.0,102.0,13.4,1505.2,349.1,-0.8,1.8,2471.473,13.29,0.019,194.7
2023-06-26T00:46:03,42.805,6.029,0.029,0.002,-0.045,103.0,104.0,102.0,13.4,1505.2,344.9,-0.8,1.8,2471.496,13.29,0.029,86.1
2023-06-26T00:49:03,42.805,6.029,0.008,-0.008,-0.038,104.0,104.0,101.0,13.4,1505.2,342.3,-0.7,1.8,2471.481,13.29,0.011,135.0
2023-06-26T00:52:03,42.805,6.029,0.002,0.014,-0.013,102.0,102.0,101.0,13.4,1505.2,329.8,-0.8,1.8,2471.475,13.29,0.014,8.1
2023-06-26T00:55:03,42.805,6.029,0.006,0.0,-0.015,102.0,102.0,101.0,13.3,1505.2,340.1,-0.7,1.8,2471.477,13.29,0.006,90.0
2023-06-26T00:58:03,42.805,6.029,-0.006,-0.006,-0.038,105.0,102.0,101.0,13.4,1505.2,329.3,-0.8,1.8,2471.482,13.29,0.008,225.0
2023-06-26T01:04:03,42.805,6.029,0.04,0.015,-0.016,103.0,103.0,102.0,13.4,1505.2,338.3,-0.8,1.8,2471.48,13.29,0.042,69.4
2023-06-26T01:07:03,42.805,6.029,0.012,-0.014,-0.033,101.0,101.0,101.0,13.3,1505.2,322.4,-0.8,1.9,2471.512,13.29,0.018,139.4
2023-06-26T01:10:03,42.805,6.029,-0.008,0.005,-0.06,102.0,100.0,102.0,13.3,1505.2,336.5,-0.7,1.8,2471.477,13.29,0.009,302.0
2023-06-26T01:13:03,42.805,6.029,0.004,0.001,-0.048,101.0,102.0,101.0,13.4,1505.2,329.3,-0.7,1.8,2471.494,13.29,0.004,76.0
2023-06-26T01:16:03,42.805,6.029,0.011,-0.007,-0.004,102.0,100.0,101.0,13.4,1505.2,333.4,-0.8,1.8,2471.481,13.29,0.013,122.5
2023-06-26T01:19:03,42.805,6.029,0.005,-0.004,-0.017,102.0,102.0,101.0,13.4,1505.2,329.5,-0.7,1.8,2471.46,13.29,0.006,128.7
2023-06-26T01:22:02,42.805,6.029,-0.016,0.01,-0.029,103.0,104.0,103.0,13.3,1505.2,353.1,-0.8,1.8,2471.489,13.29,0.018,302.0
2023-06-26T01:25:03,42.805,6.029,-0.008,0.01,-0.003,102.0,102.0,101.0,13.4,1505.2,330.2,-0.7,1.8,2471.472,13.29,0.012,321.3
2023-06-26T01:28:03,42.805,6.029,0.0,0.006,-0.017,103.0,103.0,100.0,13.3,1505.2,324.0,-0.8,1.8,2471.51,13.29,0.006,0.0
2023-06-26T01:31:03,42.805,6.029,-0.001,0.0,0.005,101.0,103.0,100.0,13.3,1505.2,327.1,-0.7,1.8,2471.488,13.29,0.001,270.0
2023-06-26T01:34:03,42.805,6.029,-0.004,0.022,-0.017,102.0,102.0,102.0,13.3,1505.2,329.8,-0.7,1.8,2471.459,13.29,0.022,349.7
2023-06-26T01:37:03,42.805,6.029,0.007,-0.011,-0.051,102.0,102.0,102.0,13.4,1505.2,328.8,-0.8,1.8,2471.47,13.29,0.013,147.5
2023-06-26T01:40:03,42.805,6.029,0.0,0.0,-0.013,100.0,104.0,102.0,13.3,1505.2,343.7,-0.8,1.8,2471.493,13.29,0.0,0.0
2023-06-26T01:43:03,42.805,6.029,-0.007,0.029,-0.011,103.0,101.0,101.0,13.4,1505.2,320.8,-0.8,1.8,2471.491,13.29,0.029,346.4
2023-06-26T01:46:03,42.805,6.029,0.015,0.008,0.004,102.0,102.0,102.0,13.4,1505.2,327.8,-0.8,1.8,2471.47,13.29,0.017,61.9
2023-06-26T01:49:03,42.805,6.029,0.009,0.001,-0.014,103.0,101.0,102.0,13.3,1505.2,333.8,-0.8,1.8,2471.459,13.29,0.009,83.7
2023-06-26T01:52:03,42.805,6.029,-0.036,0.011,-0.015,102.0,102.0,101.0,13.4,1505.2,328.3,-0.8,1.9,2471.493,13.29,0.037,287.0
2023-06-26T01:55:03,42.805,6.029,0.009,0.002,0.005,102.0,102.0,100.0,13.4,1505.2,341.9,-0.7,1.8,2471.475,13.29,0.009,77.5
2023-06-26T01:58:03,42.805,6.029,0.028,0.007,-0.019,101.0,103.0,100.0,13.4,1505.2,320.1,-0.7,1.8,2471.46,13.29,0.028,76.0
2023-06-26T02:04:03,42.805,6.029,0.013,0.011,-0.005,100.0,102.0,101.0,13.4,1505.2,340.4,-0.8,1.8,2471.484,13.29,0.017,49.8
2023-06-26T02:07:03,42.805,6.029,0.014,0.0,-0.015,101.0,101.0,101.0,13.4,1505.2,332.5,-0.8,1.8,2471.492,13.29,0.014,90.0
2023-06-26T02:10:03,42.805,6.029,0.02,0.019,-0.015,102.0,102.0,101.0,13.4,1505.2,326.3,-0.7,1.8,2471.484,13.29,0.027,46.5
2023-06-26T02:13:03,42.805,6.029,0.018,0.007,-0.008,103.0,102.0,100.0,13.4,1505.2,337.6,-0.8,1.8,2471.48,13.29,0.019,68.8
2023-06-26T02:16:03,42.805,6.029,0.005,-0.005,-0.022,102.0,100.0,101.0,13.4,1505.2,332.8,-0.8,1.8,2471.492,13.29,0.007,135.0
2023-06-26T02:19:03,42.805,6.029,0.003,0.026,-0.016,101.0,102.0,101.0,13.4,1505.2,331.5,-0.8,1.8,2471.491,13.29,0.026,6.6
2023-06-26T02:22:03,42.805,6.029,-0.003,0.0,-0.018,102.0,102.0,101.0,13.3,1505.2,344.5,-0.8,1.8,2471.459,13.29,0.003,270.0
2023-06-26T02:25:03,42.805,6.029,0.007,-0.011,-0.024,104.0,101.0,103.0,13.4,1505.2,344.9,-0.7,1.8,2471.467,13.29,0.013,147.5
2023-06-26T02:28:03,42.805,6.029,0.01,0.012,0.006,103.0,102.0,101.0,13.3,1505.2,325.3,-0.8,1.8,2471.466,13.29,0.015,39.8
2023-06-26T02:31:03,42.805,6.029,0.001,0.02,-0.009,102.0,103.0,102.0,13.4,1505.2,336.1,-0.7,1.8,2471.462,13.29,0.02,2.9
2023-06-26T02:34:03,42.805,6.029,0.02,-0.008,-0.038,103.0,101.0,101.0,13.3,1505.2,328.5,-0.8,1.8,2471.447,13.29,0.021,111.8
2023-06-26T02:37:03,42.805,6.029,0.008,0.012,-0.009,103.0,102.0,101.0,13.4,1505.2,330.8,-0.8,1.8,2471.489,13.29,0.014,33.7
2023-06-26T02:40:03,42.805,6.029,-0.01,0.016,-0.006,102.0,102.0,102.0,13.4,1505.2,329.0,-0.7,1.8,2471.457,13.29,0.018,328.0
2023-06-26T02:43:03,42.805,6.029,0.014,0.011,-0.012,101.0,102.0,101.0,13.4,1505.2,332.9,-0.8,1.8,2471.452,13.29,0.017,51.8
2023-06-26T02:46:03,42.805,6.029,0.01,0.019,-0.001,102.0,103.0,100.0,13.4,1505.2,350.3,-0.8,1.8,2471.436,13.29,0.021,27.8
2023-06-26T02:49:03,42.805,6.029,0.015,0.017,-0.004,102.0,103.0,101.0,13.4,1505.2,331.8,-0.8,1.8,2471.482,13.29,0.022,41.4
2023-06-26T02:52:03,42.805,6.029,0.014,0.013,-0.01,101.0,102.0,101.0,13.4,1505.2,333.9,-0.8,1.9,2471.47,13.29,0.019,47.1
2023-06-26T02:55:03,42.805,6.029,-0.001,0.003,-0.017,102.0,102.0,101.0,13.3,1505.2,338.9,-0.8,1.8,2471.462,13.29,0.003,341.6
2023-06-26T02:58:03,42.805,6.029,-0.001,-0.001,-0.03,102.0,101.0,101.0,13.4,1505.2,327.8,-0.8,1.8,2471.467,13.29,0.001,225.0
2023-06-26T03:04:03,42.805,6.029,0.004,0.007,-0.021,102.0,102.0,101.0,13.3,1505.2,341.1,-0.7,1.8,2471.502,13.29,0.008,29.7
2023-06-26T03:07:03,42.805,6.029,0.01,0.024,-0.024,103.0,102.0,102.0,13.4,1505.2,329.0,-0.8,1.8,2471.509,13.29,0.026,22.6
2023-06-26T03:10:03,42.805,6.029,0.015,0.015,0.004,102.0,102.0,102.0,13.4,1505.2,324.2,-0.8,1.8,2471.499,13.29,0.021,45.0
2023-06-26T03:13:03,42.805,6.029,0.004,0.002,-0.022,102.0,101.0,102.0,13.4,1505.2,324.2,-0.8,1.8,2471.507,13.29,0.004,63.4
2023-06-26T03:16:03,42.805,6.029,0.018,0.005,-0.011,103.0,101.0,101.0,13.4,1505.2,341.9,-0.8,1.8,2471.467,13.29,0.018,74.5
2023-06-26T03:19:03,42.805,6.029,0.023,-0.002,-0.007,103.0,102.0,102.0,13.3,1505.2,323.3,-0.8,1.8,2471.457,13.29,0.023,95.0
2023-06-26T03:22:03,42.805,6.029,0.002,0.011,-0.008,101.0,102.0,101.0,13.4,1505.2,333.8,-0.7,1.8,2471.477,13.29,0.011,10.3
2023-06-26T03:25:03,42.805,6.029,0.0,0.009,-0.014,102.0,102.0,101.0,13.3,1505.2,324.9,-0.7,1.8,2471.447,13.29,0.009,0.0
2023-06-26T03:28:03,42.805,6.029,0.017,-0.006,-0.015,103.0,102.0,101.0,13.4,1505.2,331.6,-0.8,1.8,2471.531,13.29,0.018,109.4
2023-06-26T03:31:03,42.805,6.029,0.017,0.016,-0.03,103.0,101.0,101.0,13.3,1505.2,332.9,-0.8,1.8,2471.493,13.29,0.023,46.7
2023-06-26T03:34:03,42.805,6.029,-0.002,0.001,-0.024,104.0,102.0,101.0,13.4,1505.2,346.8,-0.8,1.8,2471.454,13.29,0.002,296.6
2023-06-26T03:37:03,42.805,6.029,0.035,-0.006,-0.019,102.0,102.0,102.0,13.4,1505.2,332.1,-0.8,1.8,2471.451,13.29,0.035,99.7
2023-06-26T03:40:03,42.805,6.029,0.003,0.015,-0.046,103.0,103.0,100.0,13.4,1505.2,329.3,-0.8,1.8,2471.431,13.29,0.015,11.3
2023-06-26T03:43:03,42.805,6.029,-0.004,0.014,-0.001,103.0,101.0,102.0,13.3,1505.2,320.7,-0.8,1.8,2471.455,13.29,0.014,344.1
2023-06-26T03:46:03,42.805,6.029,0.018,0.014,0.031,101.0,102.0,101.0,13.4,1505.2,326.3,-0.8,1.8,2471.459,13.29,0.022,52.1
2023-06-26T03:49:03,42.805,6.029,0.013,0.021,-0.015,102.0,103.0,101.0,13.4,1505.2,325.2,-0.8,1.8,2471.426,13.29,0.024,31.8
2023-06-26T03:52:03,42.805,6.029,0.006,0.023,-0.003,102.0,105.0,101.0,13.3,1505.2,325.7,-0.8,1.8,2471.429,13.29,0.023,14.6
2023-06-26T03:55:03,42.805,6.029,0.001,0.013,-0.018,102.0,102.0,101.0,13.4,1505.2,327.1,-0.7,1.8,2471.422,13.29,0.013,4.4
2023-06-26T03:58:03,42.805,6.029,0.008,0.022,-0.007,102.0,102.0,102.0,13.3,1505.2,341.9,-0.8,1.9,2471.445,13.29,0.023,20.0
2023-06-26T04:04:03,42.805,6.029,0.013,0.005,-0.013,102.0,104.0,101.0,13.3,1505.2,340.5,-0.8,1.8,2471.494,13.28,0.013,69.0
2023-06-26T04:07:03,42.805,6.029,0.024,0.005,-0.025,102.0,103.0,101.0,13.4,1505.2,330.1,-0.8,1.8,2471.443,13.29,0.024,78.2
2023-06-26T04:10:03,42.805,6.029,0.019,0.0,-0.03,102.0,102.0,101.0,13.4,1505.2,333.4,-0.8,1.8,2471.465,13.29,0.019,90.0
2023-06-26T04:13:03,42.805,6.029,0.013,0.011,-0.019,102.0,102.0,101.0,13.3,1505.2,332.9,-0.7,1.8,2471.416,13.29,0.017,49.8
2023-06-26T04:16:03,42.805,6.029,0.016,0.017,-0.018,102.0,102.0,101.0,13.4,1505.2,327.1,-0.8,1.8,2471.467,13.29,0.023,43.3
2023-06-26T04:19:03,42.805,6.029,0.018,0.024,-0.001,102.0,103.0,101.0,13.4,1505.2,325.0,-0.7,1.8,2471.471,13.29,0.03,36.9
2023-06-26T04:22:03,42.805,6.029,0.003,0.018,-0.015,103.0,102.0,102.0,13.4,1505.2,339.5,-0.7,1.8,2471.432,13.29,0.018,9.5
2023-06-26T04:25:03,42.805,6.029,-0.003,-0.007,-0.041,102.0,103.0,101.0,13.4,1505.2,332.4,-0.8,1.8,2471.391,13.29,0.007,203.2
2023-06-26T04:28:03,42.805,6.029,0.026,0.008,-0.024,102.0,102.0,101.0,13.3,1505.2,331.2,-0.7,1.8,2471.406,13.29,0.027,72.9
2023-06-26T04:31:03,42.805,6.029,0.018,0.026,0.007,103.0,101.0,102.0,13.3,1505.2,349.3,-0.8,1.8,2471.437,13.29,0.031,34.7
2023-06-26T04:34:03,42.805,6.029,0.037,-0.007,-0.022,103.0,103.0,101.0,13.4,1505.2,328.8,-0.8,1.8,2471.444,13.29,0.037,100.7
2023-06-26T04:37:03,42.805,6.029,0.045,-0.013,0.002,101.0,102.0,102.0,13.3,1505.2,348.0,-0.7,1.8,2471.416,13.29,0.046,106.1
2023-06-26T04:40:03,42.805,6.029,0.008,0.013,-0.01,101.0,104.0,102.0,13.4,1505.2,322.2,-0.7,1.8,2471.436,13.29,0.015,31.6
2023-06-26T04:43:03,42.805,6.029,0.029,0.004,-0.005,102.0,103.0,101.0,13.4,1505.2,347.1,-0.8,1.8,2471.429,13.29,0.029,82.2
2023-06-26T04:46:03,42.805,6.029,0.032,0.01,-0.022,102.0,104.0,102.0,13.3,1505.2,322.2,-0.8,1.8,2471.42,13.29,0.033,72.6
2023-06-26T04:49:03,42.805,6.029,0.029,0.015,-0.001,103.0,102.0,102.0,13.4,1505.2,331.4,-0.8,1.8,2471.414,13.29,0.032,62.6
2023-06-26T04:52:03,42.805,6.029,0.012,0.013,-0.011,103.0,103.0,101.0,13.4,1505.2,336.1,-0.8,1.8,2471.428,13.29,0.017,42.7
2023-06-26T04:55:03,42.805,6.029,-0.004,0.012,-0.004,102.0,103.0,102.0,13.4,1505.2,339.5,-0.8,1.8,2471.433,13.29,0.012,341.6
2023-06-26T04:58:03,42.805,6.029,0.01,0.007,0.004,102.0,102.0,102.0,13.4,1505.2,327.5,-0.8,1.8,2471.405,13.29,0.012,55.0
2023-06-26T05:04:03,42.805,6.029,0.032,-0.008,0.005,102.0,102.0,101.0,13.4,1505.2,340.0,-0.8,1.8,2471.452,13.28,0.032,104.0
2023-06-26T05:07:03,42.805,6.029,0.03,0.011,0.023,101.0,107.0,102.0,13.3,1505.2,340.4,-0.8,1.8,2471.411,13.28,0.031,69.9
2023-06-26T05:10:03,42.805,6.029,0.015,0.006,-0.009,102.0,104.0,102.0,13.3,1505.2,346.4,-0.8,1.8,2471.478,13.29,0.016,68.2
2023-06-26T05:13:03,42.805,6.029,0.011,-0.002,0.005,103.0,103.0,101.0,13.3,1505.2,341.9,-0.8,1.8,2471.434,13.29,0.011,100.3
2023-06-26T05:16:03,42.805,6.029,0.013,0.007,-0.005,103.0,103.0,101.0,13.4,1505.2,327.3,-0.8,1.8,2471.407,13.29,0.014,61.7
2023-06-26T05:19:03,42.805,6.029,0.025,0.014,0.002,103.0,103.0,102.0,13.4,1505.2,340.8,-0.8,1.8,2471.434,13.29,0.028,60.7
2023-06-26T05:22:03,42.805,6.029,0.009,0.0,-0.043,103.0,103.0,101.0,13.4,1505.2,339.5,-0.8,1.8,2471.442,13.29,0.009,90.0
2023-06-26T05:25:03,42.805,6.029,0.026,0.01,-0.035,102.0,104.0,101.0,13.4,1505.2,339.7,-0.7,1.8,2471.406,13.29,0.027,69.0
2023-06-26T05:28:03,42.805,6.029,0.011,0.023,-0.007,104.0,101.0,101.0,13.3,1505.2,351.0,-0.7,1.8,2471.409,13.29,0.025,25.6
2023-06-26T05:31:03,42.805,6.029,0.023,0.038,0.003,102.0,102.0,101.0,13.4,1505.2,320.0,-0.8,1.8,2471.401,13.29,0.044,31.2
2023-06-26T05:34:03,42.805,6.029,0.016,0.02,-0.028,103.0,102.0,101.0,13.3,1505.2,342.6,-0.8,1.8,2471.346,13.29,0.025,38.7
2023-06-26T05:37:03,42.805,6.029,0.02,0.018,-0.04,103.0,102.0,103.0,13.4,1505.2,328.5,-0.7,1.8,2471.411,13.29,0.026,48.0
2023-06-26T05:40:03,42.805,6.029,0.042,0.016,0.008,103.0,103.0,101.0,13.4,1505.2,332.5,-0.8,1.8,2471.399,13.29,0.044,69.1
2023-06-26T05:43:03,42.805,6.029,0.024,0.022,-0.025,103.0,103.0,101.0,13.4,1505.2,341.2,-0.8,1.8,2471.398,13.29,0.032,47.5
2023-06-26T05:46:03,42.805,6.029,0.016,0.025,0.003,103.0,102.0,103.0,13.4,1505.2,332.1,-0.8,1.8,2471.399,13.29,0.029,32.6
2023-06-26T05:49:03,42.805,6.029,0.023,-0.003,0.003,103.0,102.0,101.0,13.4,1505.2,345.9,-0.8,1.8,2471.394,13.29,0.023,97.4
2023-06-26T05:52:03,42.805,6.029,-0.002,0.015,-0.006,102.0,102.0,102.0,13.3,1505.2,330.3,-0.7,1.8,2471.404,13.29,0.015,352.4
2023-06-26T05:55:03,42.805,6.029,0.026,0.001,-0.022,104.0,103.0,101.0,13.3,1505.2,333.4,-0.8,1.8,2471.38,13.29,0.026,87.8
2023-06-26T05:58:03,42.805,6.029,0.019,0.019,0.016,103.0,103.0,101.0,13.4,1505.2,328.8,-0.7,1.8,2471.397,13.29,0.026,45.0
2023-06-26T06:04:03,42.805,6.029,0.023,0.02,-0.034,102.0,104.0,101.0,13.3,1505.2,323.5,-0.8,1.8,2471.443,13.28,0.03,49.0
2023-06-26T06:07:03,42.805,6.029,0.027,-0.008,-0.023,103.0,102.0,102.0,13.4,1505.2,340.4,-0.8,1.8,2471.432,13.28,0.028,106.5
2023-06-26T06:10:03,42.805,6.029,0.02,0.001,-0.019,104.0,102.0,102.0,13.4,1505.2,341.5,-0.7,1.8,2471.387,13.29,0.02,87.1
2023-06-26T06:13:03,42.805,6.029,0.036,0.006,-0.004,102.0,102.0,101.0,13.4,1505.2,349.1,-0.8,1.8,2471.403,13.29,0.036,80.5
2023-06-26T06:16:03,42.805,6.029,0.045,0.008,-0.03,103.0,103.0,101.0,13.4,1505.2,336.1,-0.8,1.8,2471.357,13.29,0.045,79.9
2023-06-26T06:19:03,42.805,6.029,0.035,0.0,-0.02,103.0,102.0,102.0,13.4,1505.2,329.4,-0.8,1.8,2471.4,13.29,0.035,90.0
2023-06-26T06:22:03,42.805,6.029,0.014,0.0,-0.052,102.0,102.0,101.0,13.4,1505.2,325.8,-0.8,1.8,2471.385,13.29,0.014,90.0
2023-06-26T06:25:03,42.805,6.029,0.035,-0.001,-0.045,102.0,102.0,101.0,13.4,1505.2,320.5,-0.8,1.8,2471.392,13.29,0.035,91.6
2023-06-26T06:28:03,42.805,6.029,0.023,0.014,0.005,103.0,103.0,101.0,13.4,1505.2,330.7,-0.8,1.8,2471.369,13.29,0.026,58.7
2023-06-26T06:31:03,42.805,6.029,0.004,0.014,-0.016,102.0,102.0,101.0,13.4,1505.2,328.3,-0.7,1.8,2471.364,13.29,0.014,15.9
2023-06-26T06:34:03,42.805,6.029,0.022,0.009,-0.018,102.0,103.0,101.0,13.4,1505.2,341.2,-0.8,1.8,2471.408,13.29,0.023,67.8
2023-06-26T06:37:03,42.805,6.029,0.029,0.006,0.001,102.0,102.0,102.0,13.4,1505.2,341.5,-0.8,1.8,2471.396,13.29,0.029,78.3
2023-06-26T06:40:03,42.805,6.029,0.025,0.017,-0.009,101.0,102.0,103.0,13.4,1505.2,329.8,-0.8,1.8,2471.381,13.29,0.03,55.8
2023-06-26T06:43:03,42.805,6.029,0.034,-0.003,0.0,102.0,102.0,102.0,13.4,1505.2,348.2,-0.8,1.8,2471.36,13.29,0.034,95.0
2023-06-26T06:46:03,42.805,6.029,0.045,-0.005,-0.016,104.0,102.0,101.0,13.3,1505.2,332.6,-0.7,1.8,2471.38,13.29,0.045,96.3
2023-06-26T06:49:03,42.805,6.029,0.017,0.027,-0.025,104.0,102.0,101.0,13.4,1505.2,321.6,-0.8,1.8,2471.361,13.29,0.031,32.2
2023-06-26T06:52:03,42.805,6.029,0.048,0.002,-0.004,102.0,103.0,102.0,13.4,1505.2,343.8,-0.7,1.8,2471.403,13.29,0.048,87.6
2023-06-26T06:55:03,42.805,6.029,0.028,0.005,-0.049,101.0,104.0,102.0,13.4,1505.2,323.9,-0.8,1.8,2471.336,13.29,0.028,79.9
2023-06-26T06:58:03,42.805,6.029,0.043,0.015,0.0,103.0,102.0,101.0,13.4,1505.2,329.3,-0.8,1.8,2471.383,13.29,0.045,70.8
2023-06-26T07:04:03,42.805,6.029,0.034,0.015,0.005,103.0,104.0,101.0,13.4,1505.2,343.7,-0.8,1.8,2471.409,13.28,0.037,66.2
2023-06-26T07:07:03,42.805,6.029,0.039,-0.018,-0.013,103.0,101.0,101.0,13.3,1505.2,330.3,-0.8,1.8,2471.384,13.28,0.042,114.8
2023-06-26T07:10:02,42.805,6.029,0.044,-0.011,-0.027,102.0,103.0,102.0,13.3,1505.2,341.5,-0.8,1.8,2471.382,13.28,0.045,104.0
2023-06-26T07:13:03,42.805,6.029,0.039,-0.01,-0.015,103.0,102.0,101.0,13.3,1505.2,340.2,-0.8,1.8,2471.347,13.29,0.04,104.4
2023-06-26T07:16:03,42.805,6.029,0.013,0.011,-0.028,102.0,103.0,101.0,13.4,1505.2,330.7,-0.8,1.8,2471.38,13.29,0.017,49.8
2023-06-26T07:19:03,42.805,6.029,0.027,-0.038,-0.032,103.0,101.0,102.0,13.4,1505.2,345.4,-0.8,1.8,2471.337,13.29,0.046,144.6
2023-06-26T07:22:03,42.805,6.029,0.026,-0.023,-0.033,102.0,104.0,101.0,13.3,1505.2,351.8,-0.8,1.8,2471.389,13.29,0.034,131.5
2023-06-26T07:25:03,42.805,6.029,0.043,-0.013,-0.04,103.0,102.0,101.0,13.4,1505.2,342.6,-0.7,1.8,2471.386,13.29,0.044,106.8
2023-06-26T07:28:03,42.805,6.029,0.053,-0.002,0.026,103.0,102.0,102.0,13.4,1505.2,331.2,-0.7,1.8,2471.375,13.29,0.053,92.2
2023-06-26T07:31:03,42.805,6.029,0.035,-0.022,-0.024,102.0,103.0,101.0,13.4,1505.2,344.2,-0.7,1.8,2471.359,13.29,0.041,122.2
2023-06-26T07:34:03,42.805,6.029,0.042,-0.007,-0.018,102.0,103.0,101.0,13.3,1505.2,338.0,-0.8,1.8,2471.35,13.29,0.042,99.5
2023-06-26T07:37:03,42.805,6.029,0.015,-0.015,-0.072,103.0,103.0,101.0,13.3,1505.2,348.6,-0.7,1.8,2471.373,13.29,0.021,135.0
2023-06-26T07:40:03,42.805,6.029,0.032,-0.007,-0.012,102.0,102.0,101.0,13.4,1505.2,350.1,-0.8,1.8,2471.404,13.29,0.032,102.3
2023-06-26T07:43:03,42.805,6.029,0.032,0.007,-0.018,102.0,102.0,101.0,13.4,1505.2,323.6,-0.8,1.8,2471.379,13.29,0.032,77.7
2023-06-26T07:46:03,42.805,6.029,0.028,-0.016,-0.038,103.0,102.0,101.0,13.3,1505.2,337.7,-0.8,1.8,2471.384,13.29,0.032,119.7
2023-06-26T07:49:03,42.805,6.029,0.054,-0.006,0.006,101.0,103.0,101.0,13.4,1505.2,343.1,-0.8,1.9,2471.35,13.29,0.054,96.3
2023-06-26T07:52:03,42.805,6.029,0.029,0.023,0.025,102.0,104.0,101.0,13.4,1505.2,341.9,-0.8,1.8,2471.364,13.29,0.037,51.6
2023-06-26T07:55:03,42.805,6.029,0.028,0.0,-0.035,102.0,103.0,102.0,13.4,1505.2,319.0,-0.8,1.8,2471.369,13.29,0.028,90.0
2023-06-26T07:58:03,42.805,6.029,0.014,0.023,-0.008,103.0,105.0,100.0,13.4,1505.2,332.4,-0.8,1.8,2471.392,13.29,0.026,31.3
2023-06-26T08:04:03,42.805,6.029,0.019,-0.001,-0.052,103.0,102.0,101.0,13.4,1505.2,337.7,-0.8,1.8,2471.399,13.28,0.019,93.0
2023-06-26T08:07:03,42.805,6.029,0.043,-0.016,-0.015,103.0,103.0,101.0,13.3,1505.2,340.0,-0.8,1.8,2471.416,13.28,0.045,110.4
2023-06-26T08:10:03,42.805,6.029,0.042,-0.016,-0.057,103.0,102.0,101.0,13.3,1505.2,346.5,-0.8,1.8,2471.367,13.28,0.044,110.9
2023-06-26T08:13:03,42.805,6.029,0.071,-0.008,-0.005,102.0,101.0,101.0,13.4,1505.2,338.8,-0.8,1.8,2471.369,13.29,0.071,96.4
2023-06-26T08:16:03,42.805,6.029,0.027,-0.011,-0.025,102.0,102.0,100.0,13.4,1505.2,341.5,-0.8,1.8,2471.395,13.29,0.029,112.2
2023-06-26T08:19:03,42.805,6.029,0.02,-0.009,-0.049,103.0,101.0,101.0,13.4,1505.2,348.0,-0.8,1.8,2471.342,13.29,0.021,114.2
2023-06-26T08:22:03,42.805,6.029,0.033,0.005,-0.017,101.0,103.0,102.0,13.3,1505.2,329.3,-0.7,1.8,2471.387,13.29,0.033,81.4
2023-06-26T08:25:03,42.805,6.029,0.049,-0.002,-0.008,104.0,102.0,101.0,13.4,1505.2,332.9,-0.8,1.8,2471.368,13.29,0.049,92.3
2023-06-26T08:28:03,42.805,6.029,0.031,-0.015,-0.002,103.0,102.0,101.0,13.4,1505.2,343.0,-0.8,1.8,2471.346,13.29,0.034,115.8
2023-06-26T08:31:03,42.805,6.029,0.016,0.004,-0.031,102.0,103.0,101.0,13.3,1505.2,329.8,-0.7,1.8,2471.409,13.29,0.016,76.0
2023-06-26T08:34:03,42.805,6.029,0.01,0.0,-0.026,103.0,103.0,100.0,13.4,1505.2,335.9,-0.8,1.8,2471.408,13.29,0.01,90.0
2023-06-26T08:37:03,42.805,6.029,0.053,-0.021,-0.022,101.0,105.0,102.0,13.4,1505.2,336.6,-0.8,1.8,2471.394,13.29,0.057,111.6
2023-06-26T08:40:03,42.805,6.029,0.032,-0.012,-0.008,102.0,102.0,100.0,13.4,1505.2,339.3,-0.7,1.8,2471.345,13.29,0.034,110.6
2023-06-26T08:43:03,42.805,6.029,0.041,0.007,-0.035,102.0,103.0,101.0,13.3,1505.2,328.8,-0.8,1.8,2471.356,13.29,0.041,80.3
2023-06-26T08:46:03,42.805,6.029,0.04,0.005,0.018,103.0,103.0,101.0,13.4,1505.2,337.6,-0.7,1.8,2471.406,13.29,0.04,82.9
2023-06-26T08:49:03,42.805,6.029,0.04,0.001,-0.024,101.0,102.0,101.0,13.3,1505.2,339.3,-0.8,1.8,2471.336,13.29,0.04,88.6
2023-06-26T08:52:03,42.805,6.029,0.031,-0.045,-0.012,104.0,101.0,101.0,13.3,1505.2,347.0,-0.8,1.9,2471.347,13.29,0.054,145.4
2023-06-26T08:55:03,42.805,6.029,0.044,0.0,0.015,102.0,102.0,101.0,13.4,1505.2,340.0,-0.8,1.8,2471.341,13.29,0.044,90.0
2023-06-26T08:58:03,42.805,6.029,0.046,-0.019,-0.019,102.0,102.0,101.0,13.3,1505.2,340.8,-0.8,1.8,2471.358,13.29,0.049,112.4
2023-06-26T09:04:03,42.805,6.029,0.045,-0.016,-0.032,103.0,102.0,100.0,13.4,1505.2,340.7,-0.8,1.8,2471.429,13.28,0.047,109.6
2023-06-26T09:07:03,42.805,6.029,0.043,-0.018,-0.043,103.0,102.0,101.0,13.3,1505.2,320.4,-0.7,1.8,2471.416,13.28,0.046,112.7
2023-06-26T09:10:03,42.805,6.029,0.037,0.011,0.023,101.0,100.0,102.0,13.3,1505.2,335.0,-0.8,1.8,2471.37,13.28,0.038,73.4
2023-06-26T09:13:03,42.805,6.029,0.027,-0.005,-0.011,102.0,102.0,101.0,13.4,1505.2,341.2,-0.8,1.8,2471.412,13.28,0.027,100.5
2023-06-26T09:16:03,42.805,6.029,0.044,0.0,0.015,101.0,102.0,101.0,13.3,1505.2,337.5,-0.8,1.8,2471.391,13.29,0.044,90.0
2023-06-26T09:19:03,42.805,6.029,0.037,-0.009,-0.012,102.0,101.0,101.0,13.4,1505.2,352.0,-0.7,1.8,2471.385,13.29,0.038,103.7
2023-06-26T09:22:03,42.805,6.029,0.05,-0.007,0.01,102.0,101.0,101.0,13.4,1505.2,351.5,-0.8,1.8,2471.348,13.29,0.05,98.0
2023-06-26T09:25:03,42.805,6.029,0.045,-0.021,-0.052,103.0,100.0,101.0,13.3,1505.2,335.9,-0.8,1.8,2471.369,13.29,0.049,115.0
2023-06-26T09:28:03,42.805,6.029,0.04,-0.007,0.0,102.0,102.0,101.0,13.4,1505.2,340.0,-0.8,1.8,2471.372,13.29,0.04,99.9
2023-06-26T09:31:03,42.805,6.029,0.021,0.001,-0.028,104.0,102.0,101.0,13.3,1505.2,335.6,-0.7,1.8,2471.361,13.29,0.021,87.3
2023-06-26T09:34:03,42.805,6.029,0.03,0.0,-0.033,101.0,102.0,101.0,13.4,1505.2,328.5,-0.8,1.8,2471.336,13.29,0.03,90.0
2023-06-26T09:37:03,42.805,6.029,0.023,-0.009,-0.036,102.0,102.0,100.0,13.4,1505.2,349.5,-0.7,1.8,2471.347,13.29,0.024,111.4
2023-06-26T09:40:03,42.805,6.029,0.04,-0.018,-0.025,104.0,102.0,100.0,13.4,1505.2,343.6,-0.7,1.8,2471.373,13.29,0.043,114.2
2023-06-26T09:43:03,42.805,6.029,0.038,-0.001,-0.004,102.0,104.0,100.0,13.3,1505.2,322.5,-0.8,1.8,2471.386,13.29,0.038,91.5
2023-06-26T09:46:03,42.805,6.029,0.05,-0.019,-0.002,101.0,103.0,101.0,13.4,1505.2,342.2,-0.8,1.8,2471.382,13.29,0.053,110.8
2023-06-26T09:49:03,42.805,6.029,0.035,-0.017,-0.01,103.0,102.0,101.0,13.4,1505.2,328.1,-0.8,1.8,2471.368,13.29,0.038,115.9
2023-06-26T09:52:03,42.805,6.029,0.031,0.0,-0.019,102.0,102.0,100.0,13.4,1505.2,331.2,-0.8,1.8,2471.397,13.29,0.03,90.0
2023-06-26T09:55:03,42.805,6.029,0.032,-0.015,-0.007,103.0,102.0,101.0,13.3,1505.2,349.1,-0.8,1.8,2471.387,13.29,0.035,115.1
2023-06-26T09:58:03,42.805,6.029,0.03,-0.019,-0.005,101.0,103.0,101.0,13.3,1505.2,328.4,-0.7,1.8,2471.423,13.29,0.035,122.3
2023-06-26T10:04:03,42.805,6.029,0.025,-0.013,-0.006,103.0,102.0,101.0,13.3,1505.2,337.8,-0.7,1.8,2471.426,13.28,0.028,117.5